Beckley, WV

7:52 AM EST on January 16, 2018 (GMT -0500)
Raleigh County Memorial

Weather History for KBKW - August, 2014

Change the Weather History Date:

Sunday, August 24, 2014

  Actual Average Record
Temperature  
Mean Temperature 68 °F 69 °F  
Max Temperature 74 °F 79 °F 93 °F (2007)
Min Temperature 62 °F 60 °F 36 °F (1940)
Degree Days  
Heating Degree Days 0 0  
Month to date heating degree days 7 0  
Since 1 June heating degree days 41 47  
Since 1 July heating degree days 29 8  
Cooling Degree Days 3 5  
Month to date cooling degree days 85 133  
Year to date cooling degree days 482 466  
Since 1 June cooling degree days 407 425  
Growing Degree Days 18 (Base 50)    
Moisture  
Dew Point 63 °F    
Average Humidity 83    
Maximum Humidity 93    
Minimum Humidity 73    
Precipitation  
Precipitation 0.00 in 0.09 in 4.00 in (1926)
Month to date precipitation 4.01 2.85  
Year to date precipitation 24.40 29.04  
Snow  
Snow 0.00 in - - ()
Month to date snowfall 0.0  
Since 1 September snowfall 76.3  
Snow Depth 0.00 in    
Sea Level Pressure  
Sea Level Pressure 30.07 in    
Wind  
Wind Speed 8 mph (SE)    
Max Wind Speed 16 mph    
Max Gust Speed 21 mph    
Visibility 10 miles    
Events      
T = Trace of Precipitation, MM = Missing Value Source: NWS Daily Summary

Daily Weather History Graph

Daily Weather History Graph

Search for Another Location

Airport or City:

Trip Planner

Search our weather history database for the weather conditions in past years. The results will help you decide how hot, cold, wet, or windy it might be!

Date:

Astronomy

Aug. 24, 2014 Rise Set
Actual Time 6:47 AM EDT 8:05 PM EDT
Civil Twilight 6:20 AM EDT 8:32 PM EDT
Nautical Twilight 5:47 AM EDT 9:05 PM EDT
Astronomical Twilight 5:13 AM EDT 9:39 PM EDT
Moon 5:56 AM EDT (8/24) 7:23 PM EDT (8/24)
Length of Visible Light 14h 12m
Length of Day
13h 17m
Waning Crescent, 1% of the Moon is Illuminated
Aug 24
Waning Crescent
Aug 25
New
Sep 2
First Quarter
Sep 8
Full
Sep 15
Last Quarter

Hourly Weather History & Observations

Time (EDT) Temp. Dew Point Humidity Pressure Visibility Wind Dir Wind Speed Gust Speed Precip Events Conditions
12:51 AM 66.9 °F 64.9 °F 93% 29.99 in 6.0 mi Calm Calm - N/A   Partly Cloudy
1:51 AM 66.9 °F 64.9 °F 93% 29.98 in 5.0 mi Calm Calm - N/A   Clear
2:51 AM 68.0 °F 64.9 °F 90% 29.97 in 10.0 mi ESE 9.2 mph - N/A   Partly Cloudy
3:47 AM 68.0 °F 64.4 °F 88% 30.07 in 10.0 mi ESE 8.1 mph - N/A   Partly Cloudy
3:51 AM 68.0 °F 64.9 °F 90% 29.96 in 10.0 mi SE 8.1 mph - N/A   Partly Cloudy
4:05 AM 68.0 °F 64.9 °F 90% 30.07 in 10.0 mi ESE 5.8 mph - N/A   Mostly Cloudy
4:51 AM 68.0 °F 64.4 °F 88% 30.07 in 10.0 mi SE 6.9 mph - N/A   Overcast
5:11 AM 68.0 °F 64.0 °F 87% 30.07 in 10.0 mi East 3.5 mph - N/A   Scattered Clouds
5:20 AM 66.9 °F 64.0 °F 90% 30.07 in 10.0 mi ESE 5.8 mph - N/A   Mostly Cloudy
5:51 AM 68.0 °F 64.0 °F 87% 29.98 in 10.0 mi ESE 6.9 mph - N/A   Mostly Cloudy
6:51 AM 66.9 °F 63.0 °F 87% 29.99 in 10.0 mi ESE 6.9 mph - N/A   Overcast
7:23 AM 66.9 °F 63.0 °F 87% 30.11 in 10.0 mi ESE 6.9 mph - N/A   Overcast
7:51 AM 66.9 °F 63.0 °F 87% 30.03 in 10.0 mi SE 6.9 mph - N/A   Overcast
8:51 AM 68.0 °F 63.0 °F 84% 30.04 in 10.0 mi ESE 9.2 mph - N/A   Overcast
9:51 AM 70.0 °F 63.0 °F 78% 30.05 in 10.0 mi ESE 10.4 mph - N/A   Mostly Cloudy
10:51 AM 71.6 °F 62.6 °F 73% 30.16 in 10.0 mi SE 11.5 mph - N/A   Mostly Cloudy
11:51 AM 71.1 °F 63.0 °F 75% 30.08 in 10.0 mi SSE 8.1 mph - N/A   Overcast
12:51 PM 72.0 °F 63.0 °F 73% 30.08 in 10.0 mi SE 9.2 mph - N/A   Overcast
1:51 PM 72.0 °F 63.0 °F 73% 30.07 in 10.0 mi East 8.1 mph - N/A   Overcast
2:51 PM 71.1 °F 62.1 °F 73% 30.07 in 10.0 mi SE 10.4 mph - N/A   Overcast
3:15 PM 72.0 °F 62.1 °F 71% 30.15 in 10.0 mi ESE 9.2 mph - N/A   Overcast
3:31 PM 72.0 °F 63.0 °F 73% 30.14 in 10.0 mi ESE 9.2 mph - N/A   Overcast
3:51 PM 72.0 °F 62.1 °F 71% 30.06 in 10.0 mi ESE 12.7 mph - N/A   Overcast
4:24 PM 72.0 °F 63.0 °F 73% 30.14 in 10.0 mi SSE 11.5 mph 18.4 mph N/A   Mostly Cloudy
4:51 PM 71.6 °F 62.6 °F 73% 30.14 in 10.0 mi SE 10.4 mph - N/A   Partly Cloudy
5:21 PM 72.0 °F 63.0 °F 73% 30.13 in 10.0 mi SE 8.1 mph - N/A   Mostly Cloudy
5:51 PM 72.0 °F 63.0 °F 73% 30.04 in 10.0 mi SE 11.5 mph - N/A   Scattered Clouds
6:51 PM 69.1 °F 62.1 °F 78% 30.06 in 10.0 mi SE 13.8 mph - N/A   Mostly Cloudy
7:25 PM 68.0 °F 61.0 °F 78% 30.14 in 10.0 mi SE 8.1 mph - N/A   Partly Cloudy
7:51 PM 66.9 °F 61.0 °F 81% 30.06 in 10.0 mi Variable 6.9 mph - N/A   Clear
8:51 PM 66.0 °F 60.1 °F 81% 30.07 in 10.0 mi SSE 10.4 mph - N/A   Clear
9:51 PM 64.9 °F 59.0 °F 81% 30.09 in 10.0 mi SE 8.1 mph - N/A   Scattered Clouds
10:51 PM 64.4 °F 57.2 °F 77% 30.17 in 10.0 mi SSE 3.5 mph - N/A   Clear
11:51 PM 63.0 °F 57.9 °F 84% 30.12 in 10.0 mi SE 4.6 mph - N/A   Clear